| time (UTC) | temp C | wind direction | speed KPH | gust KPH | rain 1hr cm | rain 24hr cm | rain mn cm | humidity % | barometer mb |
| 20260506203530 | 9 | 340 | 0.0 | 4.8 | 0.00 | 1.85 | 1.55 | 88 | 1012.7 |
| 20260506203030 | 9 | 300 | 0.0 | 4.8 | 0.00 | 1.85 | 1.55 | 88 | 1012.7 |
| 20260506202530 | 9 | 275 | 0.0 | 8.0 | 0.00 | 1.85 | 1.55 | 88 | 1012.7 |
| 20260506202030 | 9 | 238 | 0.0 | 8.0 | 0.00 | 1.85 | 1.55 | 88 | 1012.6 |
| 20260506201528 | 9 | 17 | 0.0 | 3.2 | 0.00 | 1.85 | 1.55 | 88 | 1012.6 |
| 20260506201023 | 9 | 30 | 0.0 | 1.6 | 0.00 | 1.85 | 1.55 | 88 | 1012.6 |
| 20260506200515 | 9 | 28 | 0.0 | 1.6 | 0.00 | 1.85 | 1.55 | 88 | 1012.6 |
| 20260506200005 | 9 | 15 | 0.0 | 1.6 | 0.00 | 2.03 | 1.55 | 88 | 1012.5 |
| 20260506195504 | 9 | 15 | 0.0 | 3.2 | 0.00 | 2.03 | 1.55 | 88 | 1012.5 |
| 20260506195002 | 9 | 311 | 0.0 | 4.8 | 0.00 | 2.03 | 1.55 | 88 | 1012.5 |
| 20260506194502 | 9 | 311 | 0.0 | 4.8 | 0.00 | 2.03 | 1.55 | 88 | 1012.5 |
| 20260506194003 | 9 | 336 | 0.0 | 4.8 | 0.00 | 2.03 | 1.55 | 88 | 1012.4 |
| 20260506193600 | 9 | 103 | 0.0 | 3.2 | 0.00 | 2.03 | 1.55 | 88 | 1012.3 |
| 20260506193104 | 9 | 336 | 0.0 | 3.2 | 0.00 | 2.03 | 1.55 | 88 | 1012.2 |
| 20260506192555 | 9 | 327 | 0.0 | 4.8 | 0.00 | 2.03 | 1.55 | 88 | 1012.2 |
| 20260506192054 | 9 | 327 | 0.0 | 4.8 | 0.00 | 2.03 | 1.55 | 88 | 1012.2 |
| 20260506191546 | 9 | 327 | 0.0 | 4.8 | 0.00 | 2.03 | 1.55 | 88 | 1012.1 |
| 20260506191046 | 9 | 53 | 0.0 | 3.2 | 0.00 | 2.03 | 1.55 | 88 | 1012.1 |
| 20260506190537 | 9 | 51 | 0.0 | 6.4 | 0.00 | 2.03 | 1.55 | 88 | 1012.0 |
| 20260506190035 | 9 | 334 | 0.0 | 6.4 | 0.00 | 2.03 | 1.55 | 88 | 1012.0 |
| 20260506185533 | 9 | 334 | 0.0 | 4.8 | 0.00 | 2.11 | 1.55 | 88 | 1012.0 |
| 20260506185031 | 9 | 69 | 0.0 | 3.2 | 0.00 | 2.11 | 1.55 | 88 | 1011.9 |
| 20260506184531 | 9 | 296 | 0.0 | 6.4 | 0.00 | 2.11 | 1.55 | 88 | 1011.9 |
| 20260506184032 | 9 | 305 | 1.6 | 6.4 | 0.00 | 2.11 | 1.55 | 88 | 1011.9 |
| 20260506183529 | 9 | 323 | 0.0 | 6.4 | 0.00 | 2.11 | 1.55 | 88 | 1011.8 |
| 20260506183029 | 10 | 44 | 0.0 | 4.8 | 0.00 | 2.11 | 1.55 | 88 | 1011.8 |
| 20260506182527 | 10 | 141 | 0.0 | 1.6 | 0.00 | 2.11 | 1.55 | 88 | 1011.8 |
| 20260506182027 | 10 | 138 | 0.0 | 4.8 | 0.00 | 2.11 | 1.55 | 88 | 1011.7 |
| 20260506181528 | 10 | 138 | 0.0 | 4.8 | 0.00 | 2.11 | 1.55 | 88 | 1011.5 |
| 20260506181027 | 10 | 53 | 0.0 | 3.2 | 0.00 | 2.11 | 1.55 | 87 | 1011.5 |
| 20260506180525 | 10 | 69 | 0.0 | 4.8 | 0.00 | 2.11 | 1.55 | 87 | 1011.4 |
| 20260506180025 | 10 | 311 | 0.0 | 4.8 | 0.00 | 2.11 | 1.55 | 87 | 1011.3 |
| 20260506175525 | 10 | 323 | 0.0 | 6.4 | 0.00 | 2.13 | 1.55 | 87 | 1011.3 |
| 20260506175027 | 10 | 63 | 1.6 | 6.4 | 0.00 | 2.13 | 1.55 | 87 | 1011.2 |
| 20260506174525 | 10 | 350 | 0.0 | 4.8 | 0.00 | 2.13 | 1.55 | 87 | 1011.1 |
| 20260506174024 | 10 | 13 | 0.0 | 4.8 | 0.00 | 2.13 | 1.55 | 87 | 1011.1 |
| 20260506173523 | 10 | 302 | 0.0 | 4.8 | 0.00 | 2.13 | 1.55 | 87 | 1011.1 |
| 20260506173016 | 10 | 15 | 0.0 | 3.2 | 0.00 | 2.13 | 1.55 | 87 | 1011.0 |
| 20260506172516 | 10 | 40 | 0.0 | 3.2 | 0.00 | 2.13 | 1.55 | 87 | 1011.0 |
| 20260506172012 | 10 | 300 | 0.0 | 1.6 | 0.00 | 2.13 | 1.55 | 88 | 1010.9 |
| 20260506171510 | 10 | 320 | 0.0 | 1.6 | 0.00 | 2.13 | 1.55 | 88 | 1010.9 |
| 20260506171007 | 10 | 320 | 0.0 | 1.6 | 0.00 | 2.13 | 1.55 | 88 | 1010.9 |
| 20260506170507 | 10 | 320 | 0.0 | 1.6 | 0.00 | 2.13 | 1.55 | 88 | 1010.9 |
| 20260506170007 | 10 | 320 | 0.0 | 1.6 | 0.00 | 2.13 | 1.55 | 88 | 1010.8 |
| 20260506165508 | 10 | 320 | 0.0 | 1.6 | 0.00 | 2.13 | 1.55 | 88 | 1010.8 |
| 20260506165009 | 10 | 320 | 0.0 | 1.6 | 0.00 | 2.13 | 1.55 | 88 | 1010.8 |
| 20260506164508 | 10 | 320 | 0.0 | 3.2 | 0.00 | 2.13 | 1.55 | 88 | 1010.8 |
| 20260506164008 | 10 | 320 | 0.0 | 8.0 | 0.00 | 2.13 | 1.55 | 88 | 1010.8 |
| 20260506163507 | 10 | 311 | 0.0 | 8.0 | 0.00 | 2.13 | 1.55 | 88 | 1010.7 |
| 20260506163017 | 10 | 34 | 0.0 | 1.6 | 0.00 | 2.13 | 1.55 | 88 | 1010.7 |
| 20260506162504 | 10 | 70 | 0.0 | 3.2 | 0.00 | 2.13 | 1.55 | 88 | 1010.7 |
| 20260506162003 | 10 | 70 | 0.0 | 3.2 | 0.00 | 2.13 | 1.55 | 88 | 1010.7 |
| 20260506161504 | 10 | 313 | 0.0 | 3.2 | 0.00 | 2.13 | 1.55 | 88 | 1010.7 |
| 20260506161004 | 10 | 104 | 0.0 | 4.8 | 0.00 | 2.13 | 1.55 | 88 | 1010.7 |
| 20260506160507 | 10 | 326 | 0.0 | 4.8 | 0.00 | 2.13 | 1.55 | 88 | 1010.7 |
| 20260506160007 | 10 | 331 | 0.0 | 3.2 | 0.00 | 2.13 | 1.55 | 88 | 1010.7 |
| 20260506155502 | 10 | 74 | 0.0 | 6.4 | 0.00 | 2.13 | 1.55 | 88 | 1010.6 |
| 20260506155001 | 10 | 355 | 0.0 | 6.4 | 0.00 | 2.13 | 1.55 | 88 | 1010.6 |
| 20260506154502 | 10 | 22 | 0.0 | 8.0 | 0.00 | 2.13 | 1.55 | 88 | 1010.6 |
| 20260506154005 | 10 | 76 | 3.2 | 8.0 | 0.00 | 2.13 | 1.55 | 88 | 1010.6 |
| 20260506153501 | 10 | 83 | 0.0 | 11.3 | 0.00 | 2.13 | 1.55 | 88 | 1010.5 |
| 20260506153002 | 10 | 96 | 1.6 | 12.9 | 0.00 | 2.13 | 1.55 | 88 | 1010.5 |
| 20260506152501 | 10 | 275 | 3.2 | 12.9 | 0.00 | 2.13 | 1.55 | 88 | 1010.5 |
| 20260506152001 | 10 | 59 | 3.2 | 12.9 | 0.00 | 2.13 | 1.55 | 88 | 1010.5 |
| 20260506151502 | 10 | 76 | 1.6 | 9.7 | 0.00 | 2.13 | 1.55 | 88 | 1010.4 |
| 20260506151001 | 10 | 304 | 3.2 | 14.5 | 0.00 | 2.13 | 1.55 | 88 | 1010.4 |
| 20260506150502 | 10 | 80 | 1.6 | 14.5 | 0.00 | 2.13 | 1.55 | 88 | 1010.4 |
| 20260506150002 | 10 | 9 | 3.2 | 9.7 | 0.00 | 2.13 | 1.55 | 88 | 1010.4 |
| 20260506145505 | 10 | 336 | 1.6 | 6.4 | 0.00 | 2.13 | 1.55 | 88 | 1010.4 |
| 20260506145101 | 10 | 323 | 1.6 | 6.4 | 0.00 | 2.13 | 1.55 | 88 | 1010.4 |
| 20260506144555 | 10 | 341 | 1.6 | 11.3 | 0.00 | 2.13 | 1.55 | 88 | 1010.4 |
| 20260506144051 | 10 | 302 | 1.6 | 11.3 | 0.00 | 2.13 | 1.55 | 88 | 1010.4 |
| 20260506143550 | 10 | 321 | 1.6 | 9.7 | 0.00 | 2.13 | 1.55 | 88 | 1010.4 |
| 20260506143053 | 10 | 302 | 1.6 | 11.3 | 0.00 | 2.13 | 1.55 | 87 | 1010.4 |
| 20260506142540 | 10 | 333 | 1.6 | 8.0 | 0.03 | 2.13 | 1.55 | 87 | 1010.3 |
| 20260506142034 | 10 | 31 | 0.0 | 8.0 | 0.03 | 2.13 | 1.55 | 87 | 1010.4 |
| 20260506141535 | 10 | 323 | 1.6 | 8.0 | 0.03 | 2.13 | 1.55 | 87 | 1010.4 |
| 20260506141031 | 10 | 303 | 1.6 | 8.0 | 0.03 | 2.13 | 1.55 | 87 | 1010.5 |
| 20260506140525 | 10 | 11 | 0.0 | 9.7 | 0.03 | 2.13 | 1.55 | 86 | 1010.5 |
| 20260506140018 | 10 | 323 | 0.0 | 12.9 | 0.03 | 2.13 | 1.55 | 86 | 1010.5 |
| 20260506135510 | 10 | 83 | 1.6 | 12.9 | 0.03 | 2.13 | 1.55 | 86 | 1010.5 |
| 20260506135013 | 10 | 216 | 0.0 | 6.4 | 0.03 | 2.13 | 1.55 | 86 | 1010.4 |
| 20260506134507 | 10 | 329 | 1.6 | 12.9 | 0.03 | 2.13 | 1.55 | 86 | 1010.4 |
| 20260506134004 | 9 | 351 | 0.0 | 12.9 | 0.03 | 2.13 | 1.55 | 86 | 1010.5 |
| 20260506133501 | 9 | 317 | 1.6 | 9.7 | 0.03 | 2.13 | 1.55 | 86 | 1010.4 |
| 20260506133002 | 9 | 266 | 1.6 | 12.9 | 0.03 | 2.13 | 1.55 | 86 | 1010.5 |
| 20260506132609 | 9 | 267 | 1.6 | 12.9 | 0.00 | 2.11 | 1.55 | 86 | 1010.4 |
| 20260506132057 | 9 | 340 | 0.0 | 12.9 | 0.00 | 2.11 | 1.55 | 86 | 1010.5 |
| 20260506131553 | 9 | 299 | 3.2 | 9.7 | 0.00 | 2.11 | 1.55 | 86 | 1010.4 |
| 20260506131044 | 9 | 336 | 0.0 | 9.7 | 0.00 | 2.11 | 1.55 | 86 | 1010.3 |
| 20260506130544 | 10 | 294 | 3.2 | 11.3 | 0.00 | 2.11 | 1.55 | 86 | 1010.3 |
| 20260506130041 | 10 | 315 | 1.6 | 8.0 | 0.00 | 2.11 | 1.55 | 86 | 1010.2 |
| 20260506125542 | 10 | 66 | 1.6 | 9.7 | 0.00 | 2.11 | 1.55 | 86 | 1010.2 |
| 20260506125033 | 10 | 345 | 0.0 | 6.4 | 0.00 | 2.11 | 1.55 | 85 | 1010.1 |
| 20260506124529 | 10 | 72 | 0.0 | 6.4 | 0.00 | 2.11 | 1.55 | 85 | 1010.0 |
| 20260506124027 | 10 | 235 | 3.2 | 8.0 | 0.00 | 2.11 | 1.55 | 85 | 1010.0 |
| 20260506123525 | 10 | 315 | 1.6 | 12.9 | 0.03 | 2.11 | 1.55 | 85 | 1009.9 |
| 20260506123024 | 10 | 313 | 4.8 | 12.9 | 0.03 | 2.11 | 1.55 | 85 | 1009.9 |
| 20260506122523 | 10 | 342 | 3.2 | 14.5 | 0.03 | 2.11 | 1.55 | 85 | 1009.9 |
| 20260506122017 | 10 | 338 | 4.8 | 14.5 | 0.05 | 2.11 | 1.55 | 85 | 1009.9 |
| 20260506121511 | 10 | 323 | 1.6 | 11.3 | 0.05 | 2.11 | 1.55 | 85 | 1009.9 |
| 20260506121005 | 10 | 69 | 1.6 | 11.3 | 0.05 | 2.11 | 1.55 | 85 | 1009.8 |
| 20260506120503 | 10 | 326 | 4.8 | 14.5 | 0.05 | 2.11 | 1.55 | 85 | 1009.8 |
| 20260506120002 | 10 | 281 | 1.6 | 14.5 | 0.05 | 2.11 | 1.55 | 85 | 1009.7 |
| 20260506115506 | 10 | 325 | 3.2 | 14.5 | 0.05 | 2.11 | 1.55 | 84 | 1009.5 |
| 20260506115002 | 10 | 336 | 1.6 | 9.7 | 0.05 | 2.11 | 1.55 | 84 | 1009.5 |
| 20260506114504 | 10 | 304 | 4.8 | 9.7 | 0.05 | 2.11 | 1.55 | 85 | 1009.5 |
| 20260506114003 | 10 | 313 | 1.6 | 8.0 | 0.03 | 2.11 | 1.52 | 85 | 1009.5 |
| 20260506113502 | 10 | 329 | 0.0 | 12.9 | 0.03 | 2.11 | 1.52 | 84 | 1009.6 |
| 20260506113004 | 10 | 307 | 3.2 | 12.9 | 0.03 | 2.11 | 1.52 | 84 | 1009.5 |
| 20260506112503 | 10 | 355 | 3.2 | 12.9 | 0.03 | 2.11 | 1.52 | 84 | 1009.5 |
| 20260506112002 | 10 | 331 | 3.2 | 14.5 | 0.00 | 2.08 | 1.50 | 83 | 1009.4 |
| 20260506111559 | 10 | 333 | 4.8 | 14.5 | 0.00 | 2.08 | 1.50 | 84 | 1009.4 |
| 20260506111059 | 10 | 311 | 4.8 | 12.9 | 0.03 | 2.08 | 1.50 | 83 | 1009.4 |
| 20260506110555 | 10 | 317 | 3.2 | 14.5 | 0.03 | 2.08 | 1.50 | 82 | 1009.4 |
| 20260506110056 | 10 | 331 | 3.2 | 14.5 | 0.03 | 2.08 | 1.50 | 82 | 1009.4 |
| 20260506105548 | 10 | 297 | 3.2 | 8.0 | 0.05 | 2.08 | 1.50 | 81 | 1009.4 |
| 20260506105042 | 10 | 44 | 1.6 | 8.0 | 0.05 | 2.08 | 1.50 | 80 | 1009.4 |
| 20260506104534 | 10 | 82 | 0.0 | 9.7 | 0.05 | 2.08 | 1.50 | 81 | 1009.4 |
| 20260506104032 | 10 | 321 | 1.6 | 9.7 | 0.05 | 2.08 | 1.50 | 80 | 1009.4 |
| 20260506103527 | 10 | 346 | 1.6 | 9.7 | 0.05 | 2.08 | 1.50 | 80 | 1009.5 |
| 20260506103027 | 10 | 89 | 3.2 | 12.9 | 0.05 | 2.08 | 1.50 | 79 | 1009.4 |
| 20260506102522 | 10 | 308 | 3.2 | 8.0 | 0.05 | 2.08 | 1.50 | 79 | 1009.3 |
| 20260506102010 | 10 | 306 | 0.0 | 8.0 | 0.05 | 2.08 | 1.50 | 79 | 1009.3 |
| 20260506101503 | 10 | 310 | 3.2 | 8.0 | 0.08 | 2.08 | 1.50 | 79 | 1009.3 |
| 20260506101019 | 10 | 312 | 1.6 | 8.0 | 0.05 | 2.06 | 1.45 | 79 | 1009.3 |
| 20260506100512 | 10 | 355 | 0.0 | 8.0 | 0.05 | 2.06 | 1.45 | 79 | 1009.2 |
| 20260506100001 | 10 | 311 | 0.0 | 8.0 | 0.05 | 2.06 | 1.45 | 79 | 1009.2 |
| 20260506095559 | 10 | 311 | 0.0 | 8.0 | 0.05 | 2.03 | 1.42 | 79 | 1009.1 |
| 20260506095045 | 10 | 145 | 1.6 | 6.4 | 0.05 | 2.03 | 1.42 | 79 | 1009.2 |
| 20260506094552 | 10 | 39 | 1.6 | 6.4 | 0.05 | 2.03 | 1.42 | 79 | 1009.2 |
| 20260506094032 | 10 | 316 | 1.6 | 6.4 | 0.05 | 2.03 | 1.42 | 79 | 1009.1 |
| 20260506093532 | 10 | 315 | 0.0 | 8.0 | 0.08 | 2.03 | 1.42 | 79 | 1009.1 |
| 20260506093030 | 10 | 319 | 1.6 | 8.0 | 0.05 | 2.03 | 1.42 | 79 | 1009.0 |
| 20260506092525 | 10 | 122 | 1.6 | 6.4 | 0.05 | 2.03 | 1.42 | 79 | 1009.0 |
| 20260506092026 | 9 | 318 | 0.0 | 6.4 | 0.08 | 2.03 | 1.42 | 79 | 1009.0 |
| 20260506091524 | 9 | 332 | 1.6 | 6.4 | 0.08 | 2.01 | 1.42 | 79 | 1009.0 |
| 20260506091017 | 9 | 315 | 0.0 | 6.4 | 0.08 | 2.01 | 1.42 | 79 | 1009.0 |
| 20260506090515 | 9 | 315 | 0.0 | 6.4 | 0.08 | 2.01 | 1.42 | 79 | 1009.0 |
| 20260506090009 | 9 | 315 | 1.6 | 6.4 | 0.08 | 2.01 | 1.42 | 79 | 1008.9 |
| 20260506085502 | 9 | 289 | 0.0 | 8.0 | 0.08 | 1.98 | 1.40 | 79 | 1008.9 |
| 20260506085003 | 9 | 290 | 1.6 | 8.0 | 0.08 | 1.98 | 1.40 | 79 | 1008.9 |
| 20260506084501 | 9 | 317 | 0.0 | 6.4 | 0.10 | 1.98 | 1.40 | 79 | 1008.9 |
| 20260506084058 | 9 | 317 | 0.0 | 9.7 | 0.10 | 1.98 | 1.40 | 79 | 1008.9 |
| 20260506083549 | 9 | 311 | 1.6 | 11.3 | 0.08 | 1.96 | 1.37 | 79 | 1008.7 |
| 20260506083046 | 9 | 311 | 1.6 | 8.0 | 0.08 | 1.96 | 1.37 | 79 | 1008.7 |
| 20260506082548 | 9 | 330 | 0.0 | 8.0 | 0.10 | 1.96 | 1.37 | 79 | 1008.6 |
| 20260506082043 | 9 | 95 | 1.6 | 9.7 | 0.08 | 1.93 | 1.37 | 79 | 1008.6 |
| 20260506081539 | 9 | 292 | 0.0 | 9.7 | 0.08 | 1.93 | 1.35 | 79 | 1008.5 |
| 20260506081035 | 9 | 317 | 1.6 | 9.7 | 0.08 | 1.93 | 1.35 | 79 | 1008.5 |
| 20260506080532 | 9 | 73 | 3.2 | 9.7 | 0.08 | 1.93 | 1.35 | 79 | 1008.5 |
| 20260506073504 | 9 | 198 | 3.2 | 12.9 | 0.08 | 1.88 | 1.30 | 79 | 1008.3 |
| 20260506073003 | 8 | 299 | 1.6 | 9.7 | 0.08 | 1.88 | 1.30 | 79 | 1008.2 |
| 20260506072602 | 8 | 86 | 3.2 | 12.9 | 0.05 | 1.85 | 1.27 | 79 | 1008.1 |
| 20260506072055 | 8 | 350 | 3.2 | 12.9 | 0.05 | 1.85 | 1.27 | 79 | 1008.1 |
| 20260506071548 | 8 | 308 | 1.6 | 8.0 | 0.05 | 1.83 | 1.27 | 79 | 1008.1 |
| 20260506071042 | 8 | 144 | 0.0 | 9.7 | 0.05 | 1.83 | 1.27 | 79 | 1008.1 |
| 20260506070536 | 8 | 294 | 1.6 | 14.5 | 0.05 | 1.83 | 1.27 | 79 | 1008.1 |
| 20260506062502 | 8 | 348 | 1.6 | 4.8 | 0.08 | 1.80 | 1.22 | 78 | 1007.8 |
| 20260506062002 | 8 | 337 | 0.0 | 6.4 | 0.08 | 1.80 | 1.22 | 78 | 1007.8 |
| 20260506061503 | 8 | 355 | 0.0 | 8.0 | 0.05 | 1.78 | 1.19 | 79 | 1007.8 |
| 20260506061002 | 8 | 340 | 1.6 | 8.0 | 0.05 | 1.78 | 1.19 | 79 | 1007.9 |
| 20260506060502 | 8 | 327 | 3.2 | 8.0 | 0.08 | 1.78 | 1.19 | 79 | 1007.7 |
| 20260506051013 | 8 | 329 | 0.0 | 4.8 | 0.15 | 1.73 | 1.14 | 79 | 1007.8 |
| 20260506050513 | 8 | 329 | 0.0 | 6.4 | 0.15 | 1.70 | 1.12 | 79 | 1007.8 |
| 20260506045001 | 8 | 303 | 0.0 | 4.8 | 0.15 | 1.68 | 1.09 | 80 | 1007.8 |
| 20260506044504 | 8 | 311 | 0.0 | 4.8 | 0.15 | 1.65 | 1.09 | 80 | 1007.8 |
| 20260506044002 | 8 | 331 | 1.6 | 4.8 | 0.15 | 1.65 | 1.09 | 80 | 1007.7 |
| 20260506043502 | 8 | 250 | 0.0 | 4.8 | 0.15 | 1.65 | 1.07 | 80 | 1007.7 |
| 20260506043002 | 8 | 250 | 0.0 | 9.7 | 0.18 | 1.65 | 1.07 | 80 | 1007.7 |
| 20260506042557 | 8 | 246 | 0.0 | 9.7 | 0.15 | 1.60 | 1.02 | 80 | 1007.7 |
| 20260506042055 | 8 | 263 | 0.0 | 4.8 | 0.15 | 1.60 | 1.02 | 80 | 1007.7 |
| 20260506041550 | 8 | 329 | 1.6 | 6.4 | 0.15 | 1.57 | 0.99 | 80 | 1007.7 |
| 20260506041044 | 8 | 340 | 0.0 | 6.4 | 0.18 | 1.57 | 0.99 | 80 | 1007.7 |
| 20260506040540 | 8 | 325 | 0.0 | 6.4 | 0.18 | 1.55 | 0.99 | 80 | 1007.7 |
| 20260506040055 | 8 | 306 | 1.6 | 6.4 | 0.20 | 1.55 | 0.99 | 80 | 1007.7 |
| 20260506035533 | 8 | 327 | 0.0 | 6.4 | 0.23 | 1.55 | 0.97 | 80 | 1007.8 |
| 20260506035023 | 8 | 321 | 1.6 | 6.4 | 0.20 | 1.52 | 0.94 | 80 | 1007.8 |
| 20260506034515 | 8 | 295 | 1.6 | 11.3 | 0.23 | 1.52 | 0.94 | 80 | 1007.9 |
| 20260506034007 | 8 | 132 | 0.0 | 11.3 | 0.23 | 1.50 | 0.91 | 80 | 1007.9 |
| 20260506033505 | 8 | 154 | 1.6 | 9.7 | 0.23 | 1.45 | 0.89 | 80 | 1007.9 |
| 20260506033002 | 8 | 345 | 1.6 | 9.7 | 0.23 | 1.42 | 0.89 | 80 | 1007.9 |
| 20260506032502 | 8 | 322 | 1.6 | 6.4 | 0.23 | 1.42 | 0.86 | 80 | 1007.9 |
| 20260506032103 | 8 | 316 | 0.0 | 6.4 | 0.23 | 1.42 | 0.86 | 80 | 1007.9 |
| 20260506031600 | 8 | 316 | 1.6 | 6.4 | 0.23 | 1.42 | 0.84 | 80 | 1008.0 |
| 20260506031050 | 8 | 313 | 1.6 | 6.4 | 0.23 | 1.40 | 0.81 | 80 | 1008.0 |
| 20260506030538 | 8 | 315 | 0.0 | 8.0 | 0.23 | 1.37 | 0.79 | 80 | 1008.0 |
| 20260506030038 | 8 | 300 | 1.6 | 8.0 | 0.23 | 1.37 | 0.79 | 80 | 1008.0 |
| 20260506025533 | 8 | 360 | 0.0 | 12.9 | 0.23 | 1.32 | 0.71 | 80 | 1008.1 |
| 20260506025031 | 8 | 322 | 0.0 | 8.0 | 0.23 | 1.30 | 0.71 | 80 | 1008.1 |
| 20260506024522 | 8 | 303 | 1.6 | 8.0 | 0.20 | 1.27 | 0.71 | 80 | 1008.2 |
| 20260506024015 | 8 | 82 | 1.6 | 8.0 | 0.20 | 1.27 | 0.71 | 80 | 1008.2 |
| 20260506023512 | 8 | 348 | 0.0 | 8.0 | 0.15 | 1.24 | 0.66 | 80 | 1008.2 |
| 20260506023011 | 8 | 298 | 0.0 | 12.9 | 0.18 | 1.24 | 0.66 | 80 | 1008.1 |
| 20260506022506 | 8 | 63 | 1.6 | 4.8 | 0.15 | 1.19 | 0.61 | 80 | 1008.2 |
| 20260506022008 | 8 | 323 | 0.0 | 8.0 | 0.15 | 1.19 | 0.61 | 80 | 1008.3 |
| 20260506021506 | 8 | 355 | 1.6 | 9.7 | 0.15 | 1.17 | 0.61 | 80 | 1008.2 |
| 20260506021005 | 8 | 28 | 1.6 | 9.7 | 0.15 | 1.17 | 0.58 | 80 | 1008.2 |
| 20260506020558 | 8 | 92 | 1.6 | 8.0 | 0.15 | 1.14 | 0.56 | 81 | 1008.2 |
| 20260506020101 | 8 | 326 | 0.0 | 6.4 | 0.13 | 1.12 | 0.53 | 81 | 1008.3 |
| 20260506015553 | 8 | 294 | 0.0 | 8.0 | 0.10 | 1.09 | 0.51 | 81 | 1008.3 |
| 20260506015047 | 8 | 65 | 3.2 | 8.0 | 0.10 | 1.09 | 0.51 | 81 | 1008.3 |
| 20260506014545 | 9 | 300 | 0.0 | 6.4 | 0.10 | 1.09 | 0.51 | 80 | 1008.3 |
| 20260506014042 | 9 | 319 | 0.0 | 9.7 | 0.13 | 1.09 | 0.51 | 80 | 1008.3 |
| 20260506013537 | 9 | 303 | 0.0 | 9.7 | 0.13 | 1.07 | 0.48 | 80 | 1008.3 |
| 20260506013034 | 9 | 309 | 1.6 | 6.4 | 0.13 | 1.04 | 0.46 | 80 | 1008.3 |
| 20260506012533 | 9 | 355 | 0.0 | 6.4 | 0.13 | 1.04 | 0.46 | 80 | 1008.3 |
| 20260506012032 | 9 | 323 | 0.0 | 6.4 | 0.15 | 1.04 | 0.46 | 80 | 1008.3 |
| 20260506011530 | 9 | 55 | 0.0 | 6.4 | 0.18 | 1.04 | 0.46 | 80 | 1008.4 |
| 20260506011026 | 9 | 304 | 0.0 | 6.4 | 0.18 | 1.02 | 0.43 | 81 | 1008.4 |
| 20260506010523 | 9 | 311 | 0.0 | 4.8 | 0.15 | 0.99 | 0.43 | 81 | 1008.4 |
| 20260506010020 | 9 | 293 | 0.0 | 4.8 | 0.18 | 0.99 | 0.43 | 81 | 1008.4 |
| 20260506005513 | 9 | 322 | 1.6 | 8.0 | 0.20 | 0.99 | 0.43 | 81 | 1008.4 |
| 20260506005009 | 9 | 314 | 1.6 | 8.0 | 0.18 | 0.99 | 0.41 | 81 | 1008.4 |
| 20260506004511 | 9 | 71 | 1.6 | 8.0 | 0.15 | 0.97 | 0.38 | 81 | 1008.5 |
| 20260506004009 | 9 | 267 | 3.2 | 8.0 | 0.18 | 0.97 | 0.38 | 81 | 1008.5 |
| 20260506003507 | 9 | 70 | 0.0 | 8.0 | 0.18 | 0.94 | 0.36 | 81 | 1008.5 |
| 20260506003004 | 9 | 315 | 0.0 | 6.4 | 0.18 | 0.91 | 0.33 | 81 | 1008.5 |
| 20260506002601 | 9 | 324 | 0.0 | 6.4 | 0.18 | 0.91 | 0.33 | 81 | 1008.6 |
| 20260506002057 | 9 | 333 | 0.0 | 8.0 | 0.15 | 0.89 | 0.30 | 81 | 1008.6 |
| 20260506001555 | 9 | 316 | 1.6 | 8.0 | 0.15 | 0.86 | 0.28 | 81 | 1008.7 |
| 20260506001050 | 9 | 333 | 1.6 | 8.0 | 0.13 | 0.84 | 0.25 | 81 | 1008.8 |
| 20260506000549 | 9 | 33 | 1.6 | 9.7 | 0.13 | 0.81 | 0.23 | 81 | 1008.8 |
| 20260506000049 | 9 | 296 | 0.0 | 9.7 | 0.15 | 0.81 | 0.23 | 81 | 1008.8 |
| 20260505235545 | 9 | 70 | 1.6 | 6.4 | 0.13 | 0.79 | 0.23 | 81 | 1008.9 |
| 20260505235043 | 9 | 260 | 1.6 | 6.4 | 0.13 | 0.79 | 0.23 | 81 | 1008.9 |
| 20260505234547 | 9 | 319 | 1.6 | 6.4 | 0.13 | 0.79 | 0.23 | 81 | 1009.0 |
| 20260505234040 | 9 | 323 | 1.6 | 6.4 | 0.13 | 0.79 | 0.20 | 81 | 1009.0 |
| 20260505233538 | 9 | 341 | 0.0 | 8.0 | 0.13 | 0.76 | 0.18 | 81 | 1009.0 |
| 20260505233041 | 9 | 310 | 1.6 | 8.0 | 0.13 | 0.76 | 0.18 | 81 | 1009.0 |
| 20260505232535 | 10 | 302 | 0.0 | 4.8 | 0.10 | 0.71 | 0.15 | 81 | 1009.1 |
| 20260505232033 | 10 | 301 | 0.0 | 8.0 | 0.08 | 0.71 | 0.15 | 81 | 1009.1 |
| 20260505231544 | 10 | 307 | 1.6 | 14.5 | 0.10 | 0.71 | 0.15 | 81 | 1009.1 |
| 20260505231029 | 10 | 72 | 1.6 | 14.5 | 0.13 | 0.71 | 0.15 | 81 | 1009.1 |
| 20260505230526 | 10 | 324 | 0.0 | 8.0 | 0.10 | 0.71 | 0.13 | 81 | 1009.1 |
| 20260505230031 | 10 | 302 | 1.6 | 8.0 | 0.08 | 0.69 | 0.10 | 81 | 1009.1 |
| 20260505225530 | 10 | 308 | 3.2 | 8.0 | 0.13 | 0.69 | 0.10 | 81 | 1009.2 |
| 20260505225024 | 10 | 292 | 1.6 | 6.4 | 0.13 | 0.69 | 0.10 | 81 | 1009.2 |
| 20260505224525 | 10 | 45 | 0.0 | 9.7 | 0.13 | 0.66 | 0.08 | 81 | 1009.2 |
| 20260505224020 | 10 | 310 | 1.6 | 4.8 | 0.15 | 0.66 | 0.08 | 81 | 1009.2 |
| 20260505223521 | 10 | 360 | 0.0 | 6.4 | 0.15 | 0.64 | 0.05 | 81 | 1009.2 |
| 20260505223017 | 10 | 331 | 0.0 | 6.4 | 0.15 | 0.64 | 0.05 | 81 | 1009.2 |
| 20260505222517 | 10 | 5 | 0.0 | 6.4 | 0.15 | 0.64 | 0.05 | 81 | 1009.2 |
| 20260505222017 | 10 | 42 | 0.0 | 8.0 | 0.18 | 0.64 | 0.05 | 82 | 1009.2 |
| 20260505221517 | 10 | 276 | 0.0 | 8.0 | 0.18 | 0.61 | 0.05 | 81 | 1009.2 |
| 20260505221013 | 10 | 272 | 0.0 | 6.4 | 0.15 | 0.61 | 0.03 | 82 | 1009.2 |
| 20260505220515 | 10 | 336 | 1.6 | 6.4 | 0.18 | 0.61 | 0.03 | 82 | 1009.2 |
| 20260505220011 | 10 | 43 | 0.0 | 12.9 | 0.18 | 0.58 | 0.00 | 82 | 1009.3 |
| 20260505215503 | 10 | 31 | 0.0 | 8.0 | 0.18 | 0.56 | 0.56 | 82 | 1009.3 |
| 20260505215002 | 10 | 88 | 1.6 | 8.0 | 0.20 | 0.56 | 0.56 | 82 | 1009.3 |
| 20260505214502 | 10 | 339 | 1.6 | 8.0 | 0.18 | 0.53 | 0.53 | 82 | 1009.3 |
| 20260505214057 | 10 | 41 | 0.0 | 6.4 | 0.15 | 0.51 | 0.51 | 82 | 1009.3 |
| 20260505213555 | 10 | 328 | 0.0 | 6.4 | 0.15 | 0.51 | 0.51 | 82 | 1009.4 |
| 20260505213046 | 10 | 12 | 0.0 | 6.4 | 0.15 | 0.48 | 0.48 | 82 | 1009.4 |
| 20260505212542 | 10 | 44 | 0.0 | 4.8 | 0.15 | 0.48 | 0.48 | 82 | 1009.4 |
| 20260505212038 | 10 | 80 | 1.6 | 4.8 | 0.15 | 0.46 | 0.46 | 82 | 1009.5 |
| 20260505211535 | 10 | 93 | 0.0 | 8.0 | 0.13 | 0.43 | 0.43 | 82 | 1009.5 |
| 20260505211030 | 10 | 59 | 0.0 | 8.0 | 0.15 | 0.43 | 0.43 | 83 | 1009.5 |
| 20260505210528 | 10 | 338 | 0.0 | 4.8 | 0.15 | 0.43 | 0.43 | 83 | 1009.6 |
| 20260505210026 | 10 | 95 | 0.0 | 11.3 | 0.13 | 0.41 | 0.41 | 83 | 1009.6 |
| 20260505205515 | 10 | 84 | 3.2 | 11.3 | 0.13 | 0.38 | 0.38 | 83 | 1009.6 |
| 20260505205011 | 10 | 52 | 1.6 | 11.3 | 0.13 | 0.36 | 0.36 | 83 | 1009.6 |
| 20260505204510 | 10 | 342 | 0.0 | 8.0 | 0.13 | 0.36 | 0.36 | 83 | 1009.7 |
| 20260505204003 | 10 | 313 | 1.6 | 8.0 | 0.13 | 0.36 | 0.36 | 83 | 1009.7 |